Weather History for Del Bajio, Mexico

Change the Weather History Date:

Monday, November 28, 2011

  Actual Average Record
Temperature  
Mean Temperature 52 °F -  
Max Temperature 73 °F 76 °F 84 °F (2004)
Min Temperature 32 °F 44 °F 32 °F (2011)
Degree Days  
Heating Degree Days 12    
Growing Degree Days 2 (Base 50)    
Moisture  
Dew Point 13 °F    
Average Humidity 28    
Maximum Humidity 55    
Minimum Humidity 5    
Precipitation  
Precipitation 0.00 in - - ()
Sea Level Pressure  
Sea Level Pressure 30.25 in    
Wind  
Wind Speed 5 mph ()    
Max Wind Speed 14 mph    
Max Gust Speed -    
Visibility 8.9 miles    
Events      
Averages and records for this station are not official NWS values.
T = Trace of Precipitation, MM = Missing Value Source: Averaged Metar Reports

Daily Weather History Graph

Daily Weather History Graph

Search for Another Location

Airport:

Trip Planner

Search our weather history database for the weather conditions in past years. The results will help you decide how hot, cold, wet, or windy it might be!

Date:

Astronomy

Nov. 28, 2011 Rise Set
Actual Time 7:04 AM CST 6:03 PM CST
Civil Twilight 6:40 AM CST 6:27 PM CST
Nautical Twilight 6:13 AM CST 6:54 PM CST
Astronomical Twilight 5:46 AM CST 7:21 PM CST
Moon 10:18 AM CST (11/28) 9:45 PM CST (11/28)
Length of Visible Light 11h 46m
Length of Day
10h 58m
Waxing Crescent, 16% of the Moon is Illuminated
Nov 28
Waxing Crescent
Dec 2
First Quarter
Dec 10
Full
Dec 17
Last Quarter
Dec 24
New

Hourly Weather History & Observations

Time (CST) Temp. Windchill Dew Point Humidity Pressure Visibility Wind Dir Wind Speed Gust Speed Precip Events Conditions
12:42 AM 46.4 °F 41.9 °F 15.8 °F 29% 30.36 in 8.0 mi NE 9.2 mph - N/A   Clear
1:42 AM 42.8 °F 38.6 °F 17.6 °F 36% 30.36 in 8.0 mi ENE 6.9 mph - N/A   Clear
2:44 AM 39.2 °F 35.9 °F 17.6 °F 42% 30.19 in 8.0 mi East 4.6 mph - N/A   Clear
3:41 AM 35.6 °F 31.7 °F 17.6 °F 48% 30.33 in 8.0 mi West 4.6 mph - N/A   Clear
4:41 AM 33.8 °F 30.8 °F 17.6 °F 52% 30.33 in 8.0 mi WNW 3.5 mph - N/A   Clear
5:42 AM 33.8 °F 28.6 °F 15.8 °F 48% 30.21 in 8.0 mi NW 5.8 mph - N/A   Clear
6:44 AM 32.0 °F - 17.6 °F 55% 30.33 in 8.0 mi Calm Calm - N/A   Clear
7:54 AM 35.6 °F - 17.6 °F 48% 30.35 in 10.0 mi Calm Calm - N/A   Clear
8:55 AM 44.6 °F 43.1 °F 19.4 °F 37% 30.23 in 10.0 mi West 3.5 mph - N/A   Clear
10:41 AM 66.2 °F - 21.2 °F 18% 30.38 in 10.0 mi Calm Calm - N/A   Clear
11:43 AM 60.8 °F - 21.2 °F 22% 30.12 in 10.0 mi Calm Calm - N/A   Clear
1:47 PM 69.8 °F - 15.8 °F 13% 30.27 in 10.0 mi SE 5.8 mph - N/A   Clear
2:47 PM 73.4 °F - 8.6 °F 8% 30.01 in 10.0 mi SSE 6.9 mph - N/A   Clear
3:49 PM 73.4 °F - 3.2 °F 6% 30.20 in 10.0 mi Calm Calm - N/A   Clear
4:45 PM 71.6 °F - -5.8 °F 5% 30.20 in 10.0 mi North 6.9 mph - N/A   Clear
5:50 PM 64.4 °F - 3.2 °F 9% 30.10 in 10.0 mi NNE 11.5 mph - N/A   Clear
6:50 PM 57.2 °F - 5.0 °F 12% 30.26 in 8.0 mi NNE 13.8 mph - N/A   Clear
7:46 PM 53.6 °F - 5.0 °F 14% 30.27 in 8.0 mi NE 11.5 mph - N/A   Clear
8:50 PM 51.8 °F - 12.2 °F 21% 30.16 in 8.0 mi Calm Calm - N/A   Clear
10:45 PM 44.6 °F 40.7 °F 12.2 °F 27% 30.31 in 8.0 mi East 6.9 mph - N/A   Clear